Location: Helensbirgh
(56.0153°N, 4.7348°W)
Time: 16:08:56
(UTC+00:00)

N. Korean satellite - Pass Details

Date: 27 October 2019
Orbit: 456 x 506 km, 97.2° (Epoch: 21 November)

Event Time Altitude Azimuth Distance (km) Brightness Sun altitude
Rises 04:54:38 0° 31° (NNE) 2,582 10.8 -20.0°
Reaches altitude 10° 04:58:20 10° 70° (ENE) 1,705 10.5 -19.5°
Maximum altitude 04:59:16 11° 85° (E) 1,659 10.5 -19.4°
Drops below altitude 10° 05:00:11 10° 99° (E) 1,707 10.5 -19.2°
Sets 05:03:53 0° 139° (SE) 2,593 10.8 -18.7°
